Weather History for Gainesville, GA

Change the Weather History Date:

Tuesday, September 17, 2013

  Actual Average Record
Temperature  
Mean Temperature 70 °F 71 °F  
Max Temperature 75 °F 80 °F 97 °F (1931)
Min Temperature 65 °F 63 °F 50 °F (1940)
Degree Days  
Heating Degree Days 0 0  
Month to date heating degree days 0 0  
Since 1 July heating degree days 2 0  
Cooling Degree Days 5 7  
Month to date cooling degree days 181 154  
Year to date cooling degree days 1333 1480  
Growing Degree Days 20 (Base 50)    
Moisture  
Dew Point 57 °F    
Average Humidity 63    
Maximum Humidity 73    
Minimum Humidity 53    
Precipitation  
Precipitation 0.00 in 0.16 in 2.94 in (1962)
Month to date precipitation 0.02 2.64  
Year to date precipitation 41.92 38.89  
Sea Level Pressure  
Sea Level Pressure 30.20 in    
Wind  
Wind Speed 11 mph (ENE)    
Max Wind Speed 18 mph    
Max Gust Speed 26 mph    
Visibility 10 miles    
Events      
T = Trace of Precipitation, MM = Missing Value Source: NWS Daily Summary

Daily Weather History Graph

Daily Weather History Graph

Search for Another Location

Airport:

Trip Planner

Search our weather history database for the weather conditions in past years. The results will help you decide how hot, cold, wet, or windy it might be!

Date:

Astronomy

Sep. 17, 2013 Rise Set
Actual Time 7:20 AM EDT 7:38 PM EDT
Civil Twilight 6:54 AM EDT 8:03 PM EDT
Nautical Twilight 6:25 AM EDT 8:33 PM EDT
Astronomical Twilight 5:55 AM EDT 9:02 PM EDT
Moon 6:23 PM EDT (9/17) 5:17 AM EDT (9/17)
Length of Visible Light 13h 08m
Length of Day
12h 18m
Waxing Gibbous, 96% of the Moon is Illuminated
Sep 17
Waxing Gibbous
Sep 19
Full
Sep 26
Last Quarter
Oct 4
New
Oct 11
First Quarter

Hourly Weather History & Observations

Time (EDT) Temp. Dew Point Humidity Pressure Visibility Wind Dir Wind Speed Gust Speed Precip Events Conditions
12:53 AM 71.1 °F 59.0 °F 66% 30.13 in 10.0 mi ENE 6.9 mph - N/A   Partly Cloudy
1:53 AM 71.1 °F 61.0 °F 70% 30.14 in 10.0 mi ENE 8.1 mph - N/A   Partly Cloudy
2:53 AM 71.1 °F 61.0 °F 70% 30.14 in 10.0 mi ENE 10.4 mph - N/A   Clear
3:53 AM 70.0 °F 60.1 °F 71% 30.14 in 10.0 mi ENE 10.4 mph - N/A   Clear
4:53 AM 69.1 °F 59.0 °F 70% 30.14 in 10.0 mi ENE 10.4 mph - N/A   Clear
5:53 AM 68.0 °F 59.0 °F 73% 30.16 in 10.0 mi ENE 10.4 mph - N/A   Clear
6:53 AM 66.9 °F 57.9 °F 73% 30.17 in 10.0 mi ENE 12.7 mph 18.4 mph N/A   Clear
7:53 AM 66.0 °F 57.0 °F 73% 30.20 in 10.0 mi North - - N/A   Clear
8:53 AM 66.9 °F 57.0 °F 70% 30.22 in 10.0 mi ENE 13.8 mph 20.7 mph N/A   Partly Cloudy
9:53 AM 68.0 °F 57.0 °F 68% 30.25 in 10.0 mi ENE 13.8 mph 21.9 mph N/A   Mostly Cloudy
10:53 AM 69.1 °F 55.9 °F 63% 30.27 in 10.0 mi East 16.1 mph 21.9 mph N/A   Overcast
11:53 AM 71.1 °F 55.9 °F 59% 30.27 in 10.0 mi East 15.0 mph 23.0 mph N/A   Mostly Cloudy
12:53 PM 72.0 °F 55.0 °F 55% 30.25 in 10.0 mi East 9.2 mph 20.7 mph N/A   Mostly Cloudy
1:53 PM 73.0 °F 55.9 °F 55% 30.24 in 10.0 mi East 10.4 mph - N/A   Mostly Cloudy
2:53 PM 72.0 °F 55.9 °F 57% 30.22 in 10.0 mi East 13.8 mph 19.6 mph N/A   Overcast
3:53 PM 73.9 °F 57.0 °F 55% 30.20 in 10.0 mi ENE 13.8 mph 18.4 mph N/A   Overcast
4:53 PM 71.1 °F 55.9 °F 59% 30.19 in 10.0 mi East 10.4 mph - N/A   Mostly Cloudy
5:53 PM 70.0 °F 55.9 °F 61% 30.19 in 10.0 mi ENE 12.7 mph - N/A   Mostly Cloudy
6:53 PM 69.1 °F 57.0 °F 65% 30.19 in 10.0 mi ENE 6.9 mph - N/A   Overcast
7:53 PM 68.0 °F 57.0 °F 68% 30.20 in 10.0 mi ENE 6.9 mph - N/A   Overcast
8:53 PM 66.0 °F 57.0 °F 73% 30.22 in 10.0 mi ENE 6.9 mph - N/A   Overcast
9:53 PM 66.0 °F 57.0 °F 73% 30.23 in 10.0 mi ENE 6.9 mph - N/A   Overcast
10:53 PM 66.0 °F 57.0 °F 73% 30.23 in 10.0 mi ENE 11.5 mph - N/A   Overcast
11:53 PM 66.0 °F 55.9 °F 70% 30.24 in 10.0 mi ENE 8.1 mph - N/A   Overcast